Hourly Data Report for October 09, 2017

All times are specified in Local Standard Time (LST). Add 1 hour to adjust for Daylight Saving Time where and when it is observed.

PANGNIRTUNG
NUNAVUT

66°08'36.300" N
65°42'40.500" W
22.60 m
2403049
71826
WXP

Download Data

Hourly Data (October 2017)
Hourly Data Report for October 9, 2017
Temp Definition
°C
Dew Point Temp Definition
°C
Rel Hum Definition
%
Wind Dir Definition
10's deg

Wind Spd Definition
km/h
Visibility Definition
km
Stn Press Definition
kPa
Hmdx Definition


Wind Chill Definition


Weather Definition


TIME
00:00 -2.6 -9.0 61 21 3   100.34   -4 LegendNANA
01:00 -2.4 -8.8 61 13 7   100.35   -5 LegendNANA
02:00 -2.9 -9.5 60 13 5   100.33   -5 LegendNANA
03:00 -3.3 -9.7 61 15 6   100.34   -6 LegendNANA
04:00 -2.5 -9.2 60 23 2   100.35   -3 LegendNANA
05:00 -2.2 -9.7 56 10 7   100.34   -5 LegendNANA
06:00 -3.3 -10.1 59 22 3   100.35   -5 LegendNANA
07:00 -3.0 -9.9 59 13 8   100.38   -6 LegendNANA
08:00 -3.1 -10.1 58 13 8   100.39   -6 LegendNANA
09:00 -5.1 -11.9 59 26 4   100.41   -7 LegendNANA
10:00 -3.8 -10.6 59 0 1   100.44   -4 LegendNANA
11:00 -3.9 -10.0 62 23 3   100.45   -5 LegendNANA
12:00 -3.8 -10.1 62 23 2   100.46   -5 LegendNANA
13:00 -3.7 -10.5 59 15 4   100.48   -5 LegendNANA
14:00 -3.6 -10.5 59 13 4   100.50   -5 LegendNANA
15:00 -3.6 -9.6 63 13 9   100.52   -7 LegendNANA
16:00 -4.0 -10.2 62 14 7   100.53   -7 LegendNANA
17:00 -3.8 -10.0 62 12 7   100.55   -7 LegendNANA
18:00 -4.6 -10.9 61 13 6   100.55   -7 LegendNANA
19:00 -5.2 -11.1 64 10 11   100.55   -10 LegendNANA
20:00 -5.4 -11.4 63 10 11   100.55   -10 LegendNANA
21:00 -5.4 -11.2 64 12 11   100.56   -10 LegendNANA
22:00 -4.9 -10.8 63 13 7   100.54   -8 LegendNANA
23:00 -5.9 -10.6 70 24 3   100.54   -7 LegendNANA

Notes on Data Quality.

Legend

  • E = Estimated
  • M = Missing
  • NA = Not Available
  • ‡ = Partner data that is not subject to review by the National Climate Archives
Date modified: